Flag for Curaçao Weather past 2 weeks in Willemstad, Curaçao

Now
84 °F

Scattered clouds.


Feels Like: 96 °F
Forecast: 83 / 90 °F
Wind: 15 mph from Southeast

Location: Hato Airport - Curacao

Current Time: Sep 3, 2015 at 9:41:10 AM

Latest Report: Sep 3, 2015 at 8:00 AM


Visibility: N/A

Pressure: 29.92 "Hg

Humidity: 84%

Dew point: 79 °F

Location of WillemstadLocation

Historic Weather in Willemstad — Graph

°F

Willemstad temperature yesterday

Maximum temperature yesterday: 93 °F (at 11:00 AM)
Minimum temperature yesterday: 82 °F (at 12:00 AM)
Average temperature yesterday: 87 °F

Past Weeks' High & Low Weather Summary

 TemperatureHumidityPressure
High95 °F (Aug 28, 12:00 PM)94% (Aug 20, 11:00 PM)29.98 "Hg (Aug 20, 11:00 PM)
Low79 °F (Aug 24, 5:00 AM)49% (Aug 28, 11:00 AM)29.77 "Hg (Aug 24, 5:00 PM)
Average85 °F76%29.89 "Hg
* Reported Aug 19 8:00 AM — Sep 3 8:00 AM, Willemstad, Weather by CustomWeather, © 2015

Note: Actual official high and low records may vary slightly from our data, if they occured in-between our weather recording intervals... More about our weather records

Advertising

Willemstad weather history for previous 24 hours

 ConditionsComfort  
Time TempWeatherWind HumidityBarometerVisibility
8:00 AM
Thu, Sep 3
84 °FScattered clouds.15 mph84%29.92 "HgN/A
7:00 AM82 °FPassing clouds.10 mph84%29.89 "HgN/A
6:00 AM82 °FPassing clouds.13 mph79%29.89 "HgN/A
5:00 AM84 °FPassing clouds.9 mph79%29.89 "HgN/A
4:00 AM84 °FPassing clouds.9 mph79%29.89 "HgN/A
3:00 AM81 °FScattered showers. Passing clouds.12 mph79%29.89 "HgN/A
2:00 AM82 °FPassing clouds.10 mph84%29.92 "HgN/A
1:00 AM84 °FPassing clouds.13 mph79%29.92 "HgN/A
12:00 AM84 °FPassing clouds.13 mph79%29.92 "HgN/A
11:00 PM
Wed, Sep 2
84 °FPassing clouds.13 mph79%29.92 "HgN/A
10:00 PM84 °FPassing clouds.13 mph79%29.92 "HgN/A
9:00 PM84 °FPassing clouds.13 mph74%29.92 "HgN/A
8:00 PM84 °FPassing clouds.13 mph79%29.89 "HgN/A
7:00 PM84 °FPassing clouds.13 mph79%29.89 "HgN/A
6:00 PM86 °FPassing clouds.13 mph75%29.86 "HgN/A
5:00 PM88 °FPassing clouds.14 mph70%29.86 "HgN/A
4:00 PM88 °FPassing clouds.15 mph70%29.89 "HgN/A
3:00 PM90 °FPassing clouds.15 mph67%29.89 "HgN/A
2:00 PM93 °FScattered clouds.17 mph53%29.89 "HgN/A
1:00 PM91 °FScattered clouds.16 mph59%29.92 "HgN/A
12:00 PM90 °FPassing clouds.16 mph67%29.95 "HgN/A
11:00 AM93 °FScattered showers. Passing clouds.17 mph56%29.98 "HgN/A
10:00 AM90 °FScattered clouds.16 mph67%29.95 "HgN/A
9:00 AM88 °FPassing clouds.15 mph66%29.95 "HgN/A
Weather by CustomWeather, © 2015

See weather overviewHow to use our weather pages